Location: Alma?-S?li?te
(46.0667°N, 22.5167°E)
Time: 02:09:32
(UTC+00:00)

Daily predictions for brighter satellites

Satellite Brightness Start Highest point End
(mag) Time Altitude Azimuth Time Altitude Azimuth Time Altitude Azimuth
ATLAS 3B R/B 4.4 01:49:12 26° SE 01:49:12 26° SE 01:52:06 10° SE
CZ-4C R/B 4.4 02:01:56 20° NE 02:01:56 20° NE 02:03:44 10° NE
Cosmos 1844 Rocket 4.4 02:20:59 27° NE 02:20:59 27° NE 02:23:32 10° NNE
ATLAS 5 CENTAUR R/B 4.0 02:35:42 19° E 02:35:42 19° E 02:37:59 10° ENE
Cosmos 2344 4.3 02:45:54 51° NW 02:49:14 84° SW 03:02:37 10° SSE
ATLAS 2AS CENTAUR R/B 3.5 02:52:20 46° NNW 02:52:20 46° NNW 02:58:42 10° NNE
FENGYUN 3A 4.1 02:47:54 10° NNE 02:53:15 59° E 02:58:33 10° S
ADEOS 4.4 02:48:26 10° NNE 02:53:30 49° E 02:58:32 10° S
Cosmos 1844 4.3 02:55:55 47° NNE 02:55:55 47° NNE 02:59:52 10° NNE
COSMOS 2455 2.9 03:06:03 59° S 03:07:13 77° ESE 03:13:16 10° NE
METEOR-M 4.5 03:03:03 10° NNE 03:08:23 63° E 03:13:40 10° S
Cosmos 372 Rocket 4.2 03:09:21 49° SSE 03:10:30 64° ESE 03:15:34 10° NNE
CZ-2C R/B 3.9 03:16:35 10° SSE 03:16:35 10° SSE 03:16:41 10° SSE
Cosmos 1833 Rocket 3.7 03:16:09 24° N 03:19:04 43° NE 03:24:24 10° SE
Cosmos 2074 Rocket 3.8 03:15:00 10° SSW 03:21:12 78° W 03:27:27 10° N
ALOS 4.0 03:16:48 10° N 03:18:27 22° N 03:18:27 22° N
Sich 1 4.4 03:18:59 10° SSE 03:23:07 40° E 03:27:16 10° NNE
Cosmos 2082 Rocket 3.8 03:20:00 14° N 03:24:00 30° NE 03:28:59 10° ESE
ERS-2 4.3 03:23:26 10° SSE 03:24:33 19° SSE 03:24:33 19° SSE
SL-4 R/B 2.4 03:31:08 57° E 03:31:08 57° E 03:34:14 10° ESE
Cosmos 2228 Rocket 3.4 03:33:35 52° SSW 03:33:35 52° SSW 03:36:56 10° S
Lacrosse 5 3.2 03:33:29 26° N 03:33:29 26° N 03:37:20 10° NE
Meteor 2-6 Rocket 4.0 03:33:44 61° W 03:33:54 61° W 03:39:19 10° S
ATLAS 3B R/B 3.7 03:36:30 28° SW 03:36:30 28° SW 03:41:15 10° S
Cosmos 1437 Rocket 3.3 03:37:21 48° SSE 03:37:21 48° SSE 03:40:10 10° S
BREEZE M DEB (TANK) 3.6 03:28:17 13° SW 03:36:57 55° SSE 03:40:09 10° ENE
Cosmos 2184 Rocket 4.1 03:40:37 10° SSW 03:46:48 54° WNW 03:53:05 10° N
USA 307 2.8 03:46:24 69° NW 03:46:54 88° NE 03:51:13 10° ESE
CZ-4C R/B 3.3 03:47:08 28° NNW 03:47:08 28° NNW 03:52:26 10° NNE
Cosmos 2278 Rocket 2.7 03:46:22 10° S 03:51:56 62° ESE 03:57:33 10° NNE
Meteor PRIRODA 3.9 03:48:25 10° NNE 03:52:10 69° ESE 03:55:52 10° S
CZ-4B R/B 3.1 03:48:28 10° NNE 03:52:56 80° ESE 03:57:10 10° S
USA 308 2.8 03:52:49 60° WNW 03:53:34 84° SSW 03:57:52 10° SE
COSMO-SKYMED 1 2.5 03:54:17 10° S 03:58:34 62° W 04:00:09 37° NW
Envisat 4.4 03:54:30 10° NNE 03:59:19 40° E 04:04:04 10° SSE
SAR-Lupe-4 3.6 03:57:03 10° S 04:00:21 56° WSW 04:00:21 56° WSW
Cosmos 1844 Rocket 3.7 04:02:41 27° NW 04:02:41 27° NW 04:07:04 10° N
Cosmos 1805 Rocket 3.5 03:58:27 10° SSW 04:02:50 59° W 04:07:17 10° N
Cosmos 494 Rocket 4.0 03:59:43 16° NNW 04:03:50 78° ENE 04:08:57 10° SSE
SL-24 R/B 4.4 03:59:01 10° S 04:04:22 66° WSW 04:07:58 17° NNW
deb Chang Zheng 4 3.7 04:00:47 10° N 04:05:00 51° WNW 04:09:13 10° SW
COSMOS 2406 3.2 04:02:25 23° NNW 04:06:10 73° WSW 04:11:54 10° SSE
YAOGAN 6 3.9 04:07:02 10° NNE 04:10:20 39° E 04:13:38 10° S
Cosmos 1666 Rocket 3.6 04:06:44 10° S 04:11:03 82° E 04:15:26 10° N
FALCON 9 DEB 3.8 04:16:39 36° WSW 04:17:15 40° SW 04:20:31 10° SSE
USA 305 3.1 04:16:57 33° W 04:18:35 55° SW 04:22:46 10° SE
ATLAS 5 CENTAUR R/B 1.7 04:17:17 30° W 04:18:57 47° NW 04:23:25 10° NNE
Cosmos 1689 Rocket 2.9 04:17:49 10° SSW 04:19:51 31° SW 04:19:51 31° SW
Cosmos 2366 rocket 4.4 04:16:19 10° S 04:22:32 68° E 04:28:45 10° NNE
Nadezhda 3 Rocket 4.3 04:16:57 10° NNW 04:22:45 41° W 04:28:28 10° SSW
H-2A R/B 3.3 04:20:15 10° NNE 04:23:59 48° E 04:27:42 10° S
CZ-2C R/B 3.8 04:19:32 10° SE 04:24:38 44° ENE 04:29:38 10° N
MOS 1 Rocket 3.4 04:20:00 10° S 04:25:01 79° WSW 04:30:21 10° NNW
Cosmos 1242 Rocket 2.7 04:21:38 10° N 04:25:19 77° E 04:28:59 10° SSE
USA 306 3.3 04:25:27 27° W 04:27:23 48° SW 04:31:31 10° SSE
Cosmos 2218 Rocket 4.2 04:21:56 10° S 04:28:09 77° E 04:34:20 10° N
USA 81 4.0 04:24:11 10° S 04:29:26 77° W 04:34:44 10° N
NOSS 3-1 (C) 4.4 04:22:37 13° NW 04:29:26 67° NE 04:38:01 10° SE
Cosmos 1633 Rocket 2.9 04:26:40 10° SSW 04:31:04 75° W 04:35:30 10° N
Cosmos 1048 Rocket 4.4 04:28:12 18° NW 04:31:45 42° WSW 04:36:34 10° S
ADEOS 4.5 04:28:29 10° N 04:32:44 26° WNW 04:36:58 10° WSW
Meteor 1-20 Rocket 4.3 04:27:22 10° S 04:33:07 88° E 04:38:59 10° NNE
Cosmos 1125 Rocket 3.4 04:27:59 10° SSW 04:33:09 64° WNW 04:38:21 10° NNE
Meteor 1-27 Rocket 4.2 04:30:17 10° NNW 04:35:41 40° W 04:41:08 10° SSW
BREEZE-M DEB (TANK) 2.8 04:34:15 24° W 04:35:56 89° SSW 04:41:33 10° E
Cosmos 1269 Rocket 4.1 04:34:11 10° NNW 04:39:30 80° ENE 04:44:47 10° SSE
FALCON 9 DEB 4.4 04:37:59 19° NNW 04:39:31 27° NNE 04:42:21 10° ENE
H-2A R/B 2.9 04:35:47 10° N 04:39:34 51° WNW 04:43:17 10° SSW
NOSS 2-1 (E) 4.1 04:37:15 10° SSW 04:40:27 46° ESE 04:43:48 10° NE
ATLAS 2AS CENTAUR R/B 4.2 04:39:47 15° NW 04:44:09 23° NNW 04:50:01 10° NE
Cosmos 1356 4.4 04:41:38 10° SW 04:44:30 25° WNW 04:47:23 10° NNW
FALCON 9 DEB 4.3 04:43:29 17° NW 04:45:14 28° NNE 04:48:06 10° ENE
PSLV R/B 3.7 04:43:29 10° N 04:47:12 56° WNW 04:50:51 10° SSW
Cosmos 1707 Rocket 4.4 04:47:36 10° NNW 04:51:21 29° W 04:55:05 10° SSW
deb Kosmos-1763 4.0 04:48:55 10° NNW 04:52:31 68° WSW 04:56:06 10° SSE
COSMOS 2455 3.8 04:49:18 12° W 04:53:47 26° NW 04:58:49 10° NNE
CZ-4B DEB 4.1 04:48:35 10° NNE 04:54:03 76° WNW 04:59:32 10° SSW
CZ-2C R/B 3.4 04:53:03 10° SSW 04:54:19 12° S 04:55:35 10° SSE
ALOS 4.2 04:56:44 10° NW 04:56:56 10° NW 04:56:56 10° NW
Cosmos 2242 Rocket 3.8 04:53:45 10° N 04:58:10 73° E 05:02:32 10° SSE
Sich 1 4.3 04:57:34 10° WSW 05:00:57 21° WNW 05:04:22 10° NNW
Meteor 1-19 Rocket 4.1 04:56:45 10° NNW 05:02:12 76° W 05:07:34 10° S
Cosmos 1833 Rocket 3.5 04:57:55 10° NW 05:02:50 32° WSW 05:07:44 10° SSW
MOS 1-B 4.3 04:57:34 10° NNE 05:03:23 74° WNW 05:09:10 10° SSW
SL-8 Rocket 4.1 04:57:52 10° SSW 05:03:49 50° WNW 05:09:50 10° N
Cosmos 1939 Rocket 4.5 05:02:08 10° NNE 05:06:02 40° E 05:09:57 10° SSE
Okean 1 3.5 05:03:33 10° NNW 05:07:31 52° W 05:11:26 10° S
Cosmos 2082 Rocket 2.5 05:02:50 10° NW 05:08:22 52° WSW 05:13:52 10° S
SL-4 R/B 3.2 05:06:43 10° W 05:09:47 24° SW 05:12:46 10° SSE
FALCON 9 DEB 4.0 05:07:03 11° NW 05:09:53 34° NNE 05:12:53 10° E
USA 290 3.2 05:07:40 10° NW 05:10:33 29° WSW 05:13:23 10° SSW
Cosmos 1703 Rocket 3.7 05:06:18 10° N 05:10:40 81° E 05:14:59 10° S
Cosmos 2297 4.0 05:07:14 10° SSW 05:12:49 74° ESE 05:18:28 10° NNE
CZ-4B R/B 3.2 05:08:23 10° NNE 05:13:50 87° WNW 05:19:20 10° SSW
Cosmos 1602 4.2 05:10:34 10° SSW 05:14:15 39° WNW 05:17:59 10° N
Meteor 1-18 Rocket 4.3 05:09:45 10° NNW 05:15:18 59° W 05:20:45 10° S
Meteor 1-14 Rocket 4.3 05:11:04 10° SSW 05:16:47 79° WNW 05:22:40 10° N
Lacrosse 5 3.3 05:13:09 10° NW 05:17:23 26° N 05:21:35 10° ENE
CZ-4 R/B 4.0 05:14:06 10° NE 05:17:40 25° E 05:21:11 10° SSE
Cosmos 1470 Rocket 3.9 05:14:09 10° SSW 05:18:19 42° WNW 05:22:29 10° N
PAYLOAD B 4.3 05:14:09 10° N 05:19:33 58° WNW 05:24:55 10° SSW
Cosmos 1818 3.6 05:14:27 10° SW 05:19:49 60° NW 05:25:15 10° NNE
Cosmos 1821 Rocket 4.2 05:14:41 10° S 05:20:46 81° E 05:26:57 10° N
Cosmos 1727 Rocket 4.1 05:15:54 10° NNW 05:22:07 60° W 05:28:20 10° S
Cosmos 909 Rocket 4.3 05:21:54 10° NW 05:28:13 86° NE 05:35:16 10° SE
